owner,sensor,date,latitude,longitude,air_temperature,qcFlag 
DISL,ioos:station:DISL:MHPA:1,2019-09-01T00:00:00Z,30.6671,-87.9365,26.58,11111222 
DISL,ioos:station:DISL:MHPA:1,2019-09-01T01:00:00Z,30.6671,-87.9365,25.8,11111222 
DISL,ioos:station:DISL:MHPA:1,2019-09-01T02:00:00Z,30.6671,-87.9365,25.43,11111222 
DISL,ioos:station:DISL:MHPA:1,2019-09-01T03:00:00Z,30.6671,-87.9365,25.12,11111222 
DISL,ioos:station:DISL:MHPA:1,2019-09-01T04:00:00Z,30.6671,-87.9365,25.16,11111222 
DISL,ioos:station:DISL:MHPA:1,2019-09-01T05:00:00Z,30.6671,-87.9365,25.09,11111222 
DISL,ioos:station:DISL:MHPA:1,2019-09-01T06:00:00Z,30.6671,-87.9365,24.75,11111222 
DISL,ioos:station:DISL:MHPA:1,2019-09-01T07:00:00Z,30.6671,-87.9365,24.66,11111222 
DISL,ioos:station:DISL:MHPA:1,2019-09-01T08:00:00Z,30.6671,-87.9365,24.48,11111222 
DISL,ioos:station:DISL:MHPA:1,2019-09-01T09:00:00Z,30.6671,-87.9365,23.91,11111222 
DISL,ioos:station:DISL:MHPA:1,2019-09-01T10:00:00Z,30.6671,-87.9365,23.67,11111222 
DISL,ioos:station:DISL:MHPA:1,2019-09-01T11:00:00Z,30.6671,-87.9365,23.61,11111222 
DISL,ioos:station:DISL:MHPA:1,2019-09-01T12:00:00Z,30.6671,-87.9365,23.55,11111222 
DISL,ioos:station:DISL:MHPA:1,2019-09-01T13:00:00Z,30.6671,-87.9365,24.72,11111222 
DISL,ioos:station:DISL:MHPA:1,2019-09-01T14:00:00Z,30.6671,-87.9365,25.5,11111222 
DISL,ioos:station:DISL:MHPA:1,2019-09-01T15:00:00Z,30.6671,-87.9365,26.69,11111222 
DISL,ioos:station:DISL:MHPA:1,2019-09-01T16:00:00Z,30.6671,-87.9365,27.63,11111222 
DISL,ioos:station:DISL:MHPA:1,2019-09-01T17:00:00Z,30.6671,-87.9365,28.29,11111222 
DISL,ioos:station:DISL:MHPA:1,2019-09-01T18:00:00Z,30.6671,-87.9365,29.06,11111222 
DISL,ioos:station:DISL:MHPA:1,2019-09-01T19:00:00Z,30.6671,-87.9365,29.84,11111222 
DISL,ioos:station:DISL:MHPA:1,2019-09-01T20:00:00Z,30.6671,-87.9365,29.8,11111222 
DISL,ioos:station:DISL:MHPA:1,2019-09-01T21:00:00Z,30.6671,-87.9365,29.17,11111222 
DISL,ioos:station:DISL:MHPA:1,2019-09-01T22:00:00Z,30.6671,-87.9365,28.85,11111222 
DISL,ioos:station:DISL:MHPA:1,2019-09-01T23:00:00Z,30.6671,-87.9365,28.78,11111222 
DISL,ioos:station:DISL:MHPA:1,2019-09-02T00:00:00Z,30.6671,-87.9365,28.34,11111222 
DISL,ioos:station:DISL:MHPA:1,2019-09-02T01:00:00Z,30.6671,-87.9365,27.94,11111222 
DISL,ioos:station:DISL:MHPA:1,2019-09-02T02:00:00Z,30.6671,-87.9365,27.21,11111222 
DISL,ioos:station:DISL:MHPA:1,2019-09-02T03:00:00Z,30.6671,-87.9365,26.68,11111222 
DISL,ioos:station:DISL:MHPA:1,2019-09-02T04:00:00Z,30.6671,-87.9365,26.34,11111222 
DISL,ioos:station:DISL:MHPA:1,2019-09-02T05:00:00Z,30.6671,-87.9365,25.73,11111222 
DISL,ioos:station:DISL:MHPA:1,2019-09-02T06:00:00Z,30.6671,-87.9365,25.53,11111222 
DISL,ioos:station:DISL:MHPA:1,2019-09-02T07:00:00Z,30.6671,-87.9365,25.33,11111222 
DISL,ioos:station:DISL:MHPA:1,2019-09-02T08:00:00Z,30.6671,-87.9365,25.23,11111222 
DISL,ioos:station:DISL:MHPA:1,2019-09-02T09:00:00Z,30.6671,-87.9365,24.45,11111222 
DISL,ioos:station:DISL:MHPA:1,2019-09-02T10:00:00Z,30.6671,-87.9365,24.01,11111222 
DISL,ioos:station:DISL:MHPA:1,2019-09-02T11:00:00Z,30.6671,-87.9365,23.81,11111222 
DISL,ioos:station:DISL:MHPA:1,2019-09-02T12:00:00Z,30.6671,-87.9365,23.61,11111222 
DISL,ioos:station:DISL:MHPA:1,2019-09-02T13:00:00Z,30.6671,-87.9365,24.52,11111222 
DISL,ioos:station:DISL:MHPA:1,2019-09-02T16:00:00Z,30.6671,-87.9365,29.13,11111222 
DISL,ioos:station:DISL:MHPA:1,2019-09-02T17:00:00Z,30.6671,-87.9365,30.24,11111222 
DISL,ioos:station:DISL:MHPA:1,2019-09-02T18:00:00Z,30.6671,-87.9365,31.19,11111222 
DISL,ioos:station:DISL:MHPA:1,2019-09-02T19:00:00Z,30.6671,-87.9365,31.49,11111222 
DISL,ioos:station:DISL:MHPA:1,2019-09-02T20:00:00Z,30.6671,-87.9365,31.36,11111222 
DISL,ioos:station:DISL:MHPA:1,2019-09-02T21:00:00Z,30.6671,-87.9365,31.82,11111222 
DISL,ioos:station:DISL:MHPA:1,2019-09-02T22:00:00Z,30.6671,-87.9365,30.17,11111222 
DISL,ioos:station:DISL:MHPA:1,2019-09-02T23:00:00Z,30.6671,-87.9365,31.46,11111222 
DISL,ioos:station:DISL:MHPA:1,2019-09-03T00:00:00Z,30.6671,-87.9365,30.31,11111222 
DISL,ioos:station:DISL:MHPA:1,2019-09-03T01:00:00Z,30.6671,-87.9365,28.88,11111222 
DISL,ioos:station:DISL:MHPA:1,2019-09-03T02:00:00Z,30.6671,-87.9365,28.01,11111222 
DISL,ioos:station:DISL:MHPA:1,2019-09-03T03:00:00Z,30.6671,-87.9365,27.61,11111222 
DISL,ioos:station:DISL:MHPA:1,2019-09-03T04:00:00Z,30.6671,-87.9365,27.02,11111222 
DISL,ioos:station:DISL:MHPA:1,2019-09-03T05:00:00Z,30.6671,-87.9365,26.24,11111222 
DISL,ioos:station:DISL:MHPA:1,2019-09-03T06:00:00Z,30.6671,-87.9365,25.8,11111222 
DISL,ioos:station:DISL:MHPA:1,2019-09-03T07:00:00Z,30.6671,-87.9365,25.26,11111222 
DISL,ioos:station:DISL:MHPA:1,2019-09-03T08:00:00Z,30.6671,-87.9365,24.82,11111222 
DISL,ioos:station:DISL:MHPA:1,2019-09-03T09:00:00Z,30.6671,-87.9365,24.55,11111222 
DISL,ioos:station:DISL:MHPA:1,2019-09-03T10:00:00Z,30.6671,-87.9365,24.22,11111222 
DISL,ioos:station:DISL:MHPA:1,2019-09-03T11:00:00Z,30.6671,-87.9365,23.91,11111222 
DISL,ioos:station:DISL:MHPA:1,2019-09-03T12:00:00Z,30.6671,-87.9365,24.65,11111222 
DISL,ioos:station:DISL:MHPA:1,2019-09-03T13:00:00Z,30.6671,-87.9365,26.51,11111222 
DISL,ioos:station:DISL:MHPA:1,2019-09-03T14:00:00Z,30.6671,-87.9365,27.13,11111222 
DISL,ioos:station:DISL:MHPA:1,2019-09-03T15:00:00Z,30.6671,-87.9365,29.64,11111222 
DISL,ioos:station:DISL:MHPA:1,2019-09-03T16:00:00Z,30.6671,-87.9365,30.61,11111222 
DISL,ioos:station:DISL:MHPA:1,2019-09-03T17:00:00Z,30.6671,-87.9365,31.29,11111222 
DISL,ioos:station:DISL:MHPA:1,2019-09-03T18:00:00Z,30.6671,-87.9365,32.2,11111222 
DISL,ioos:station:DISL:MHPA:1,2019-09-03T19:00:00Z,30.6671,-87.9365,32.87,11111222 
DISL,ioos:station:DISL:MHPA:1,2019-09-03T20:00:00Z,30.6671,-87.9365,32.83,11111222 
DISL,ioos:station:DISL:MHPA:1,2019-09-03T21:00:00Z,30.6671,-87.9365,33.25,11111222 
DISL,ioos:station:DISL:MHPA:1,2019-09-03T22:00:00Z,30.6671,-87.9365,33.52,11111222 
DISL,ioos:station:DISL:MHPA:1,2019-09-03T23:00:00Z,30.6671,-87.9365,33.42,11111222 
DISL,ioos:station:DISL:MHPA:1,2019-09-04T00:00:00Z,30.6671,-87.9365,32.06,11111222 
DISL,ioos:station:DISL:MHPA:1,2019-09-04T01:00:00Z,30.6671,-87.9365,29.44,11111222 
DISL,ioos:station:DISL:MHPA:1,2019-09-04T02:00:00Z,30.6671,-87.9365,28.34,11111222 
DISL,ioos:station:DISL:MHPA:1,2019-09-04T03:00:00Z,30.6671,-87.9365,27.89,11111222 
DISL,ioos:station:DISL:MHPA:1,2019-09-04T04:00:00Z,30.6671,-87.9365,27.52,11111222 
DISL,ioos:station:DISL:MHPA:1,2019-09-04T05:00:00Z,30.6671,-87.9365,26.61,11111222 
DISL,ioos:station:DISL:MHPA:1,2019-09-04T06:00:00Z,30.6671,-87.9365,25.77,11111222 
DISL,ioos:station:DISL:MHPA:1,2019-09-04T07:00:00Z,30.6671,-87.9365,25.53,11111222 
DISL,ioos:station:DISL:MHPA:1,2019-09-04T08:00:00Z,30.6671,-87.9365,25.29,11111222 
DISL,ioos:station:DISL:MHPA:1,2019-09-04T09:00:00Z,30.6671,-87.9365,25.09,11111222 
DISL,ioos:station:DISL:MHPA:1,2019-09-04T10:00:00Z,30.6671,-87.9365,25.03,11111222 
DISL,ioos:station:DISL:MHPA:1,2019-09-04T11:00:00Z,30.6671,-87.9365,24.82,11111222 
DISL,ioos:station:DISL:MHPA:1,2019-09-04T12:00:00Z,30.6671,-87.9365,24.62,11111222 
DISL,ioos:station:DISL:MHPA:1,2019-09-04T13:00:00Z,30.6671,-87.9365,25.46,11111222 
DISL,ioos:station:DISL:MHPA:1,2019-09-04T14:00:00Z,30.6671,-87.9365,26.56,11111222 
DISL,ioos:station:DISL:MHPA:1,2019-09-04T15:00:00Z,30.6671,-87.9365,29.58,11111222 
DISL,ioos:station:DISL:MHPA:1,2019-09-04T16:00:00Z,30.6671,-87.9365,31.42,11111222 
DISL,ioos:station:DISL:MHPA:1,2019-09-04T17:00:00Z,30.6671,-87.9365,32.35,11111222 
DISL,ioos:station:DISL:MHPA:1,2019-09-04T18:00:00Z,30.6671,-87.9365,33.42,11111222 
DISL,ioos:station:DISL:MHPA:1,2019-09-04T19:00:00Z,30.6671,-87.9365,33.9,11111222 
DISL,ioos:station:DISL:MHPA:1,2019-09-04T20:00:00Z,30.6671,-87.9365,34.17,11111222 
DISL,ioos:station:DISL:MHPA:1,2019-09-04T21:00:00Z,30.6671,-87.9365,34.7,11111222 
DISL,ioos:station:DISL:MHPA:1,2019-09-04T22:00:00Z,30.6671,-87.9365,34.4,11111222 
DISL,ioos:station:DISL:MHPA:1,2019-09-04T23:00:00Z,30.6671,-87.9365,33.79,11111222 
DISL,ioos:station:DISL:MHPA:1,2019-09-05T00:00:00Z,30.6671,-87.9365,32.72,11111222 
DISL,ioos:station:DISL:MHPA:1,2019-09-05T01:00:00Z,30.6671,-87.9365,30.11,11111222 
DISL,ioos:station:DISL:MHPA:1,2019-09-05T02:00:00Z,30.6671,-87.9365,29.52,11111222 
DISL,ioos:station:DISL:MHPA:1,2019-09-05T03:00:00Z,30.6671,-87.9365,28.58,11111222 
DISL,ioos:station:DISL:MHPA:1,2019-09-05T04:00:00Z,30.6671,-87.9365,27.96,11111222 
DISL,ioos:station:DISL:MHPA:1,2019-09-05T05:00:00Z,30.6671,-87.9365,27.18,11111222 
DISL,ioos:station:DISL:MHPA:1,2019-09-05T06:00:00Z,30.6671,-87.9365,26.61,11111222 
DISL,ioos:station:DISL:MHPA:1,2019-09-05T07:00:00Z,30.6671,-87.9365,25.94,11111222 
DISL,ioos:station:DISL:MHPA:1,2019-09-05T08:00:00Z,30.6671,-87.9365,25.67,11111222 
DISL,ioos:station:DISL:MHPA:1,2019-09-05T09:00:00Z,30.6671,-87.9365,25.5,11111222 
DISL,ioos:station:DISL:MHPA:1,2019-09-05T10:00:00Z,30.6671,-87.9365,25.19,11111222 
DISL,ioos:station:DISL:MHPA:1,2019-09-05T11:00:00Z,30.6671,-87.9365,24.66,11111222 
DISL,ioos:station:DISL:MHPA:1,2019-09-05T12:00:00Z,30.6671,-87.9365,24.35,11111222 
DISL,ioos:station:DISL:MHPA:1,2019-09-05T13:00:00Z,30.6671,-87.9365,25.4,11111222 
DISL,ioos:station:DISL:MHPA:1,2019-09-05T14:00:00Z,30.6671,-87.9365,26.76,11111222 
DISL,ioos:station:DISL:MHPA:1,2019-09-05T15:00:00Z,30.6671,-87.9365,29.08,11111222 
DISL,ioos:station:DISL:MHPA:1,2019-09-05T16:00:00Z,30.6671,-87.9365,30.85,11111222 
DISL,ioos:station:DISL:MHPA:1,2019-09-05T17:00:00Z,30.6671,-87.9365,31.99,11111222 
DISL,ioos:station:DISL:MHPA:1,2019-09-05T18:00:00Z,30.6671,-87.9365,32.45,11111222 
DISL,ioos:station:DISL:MHPA:1,2019-09-05T19:00:00Z,30.6671,-87.9365,33.25,11111222 
DISL,ioos:station:DISL:MHPA:1,2019-09-05T20:00:00Z,30.6671,-87.9365,33.76,11111222 
DISL,ioos:station:DISL:MHPA:1,2019-09-05T21:00:00Z,30.6671,-87.9365,34.23,11111222 
DISL,ioos:station:DISL:MHPA:1,2019-09-05T22:00:00Z,30.6671,-87.9365,34.3,11111222 
DISL,ioos:station:DISL:MHPA:1,2019-09-05T23:00:00Z,30.6671,-87.9365,34.1,11111222 
DISL,ioos:station:DISL:MHPA:1,2019-09-06T00:00:00Z,30.6671,-87.9365,32.72,11111222 
DISL,ioos:station:DISL:MHPA:1,2019-09-06T01:00:00Z,30.6671,-87.9365,31.42,11111222 
DISL,ioos:station:DISL:MHPA:1,2019-09-06T02:00:00Z,30.6671,-87.9365,30.93,11111222 
DISL,ioos:station:DISL:MHPA:1,2019-09-06T03:00:00Z,30.6671,-87.9365,30.27,11111222 
DISL,ioos:station:DISL:MHPA:1,2019-09-06T04:00:00Z,30.6671,-87.9365,29.19,11111222 
DISL,ioos:station:DISL:MHPA:1,2019-09-06T05:00:00Z,30.6671,-87.9365,28.41,11111222 
DISL,ioos:station:DISL:MHPA:1,2019-09-06T09:00:00Z,30.6671,-87.9365,26.1,11111222 
DISL,ioos:station:DISL:MHPA:1,2019-09-06T10:00:00Z,30.6671,-87.9365,25.26,11111222 
DISL,ioos:station:DISL:MHPA:1,2019-09-06T11:00:00Z,30.6671,-87.9365,24.69,11111222 
DISL,ioos:station:DISL:MHPA:1,2019-09-06T12:00:00Z,30.6671,-87.9365,24.15,11111222 
DISL,ioos:station:DISL:MHPA:1,2019-09-06T13:00:00Z,30.6671,-87.9365,24.28,11111222 
DISL,ioos:station:DISL:MHPA:1,2019-09-06T14:00:00Z,30.6671,-87.9365,24.79,11111222 
DISL,ioos:station:DISL:MHPA:1,2019-09-06T15:00:00Z,30.6671,-87.9365,25.95,11111222 
DISL,ioos:station:DISL:MHPA:1,2019-09-06T16:00:00Z,30.6671,-87.9365,28.07,11111222 
DISL,ioos:station:DISL:MHPA:1,2019-09-06T17:00:00Z,30.6671,-87.9365,28.94,11111222 
DISL,ioos:station:DISL:MHPA:1,2019-09-06T18:00:00Z,30.6671,-87.9365,30.38,11111222 
DISL,ioos:station:DISL:MHPA:1,2019-09-06T19:00:00Z,30.6671,-87.9365,31.53,11111222 
DISL,ioos:station:DISL:MHPA:1,2019-09-06T20:00:00Z,30.6671,-87.9365,32.27,11111222 
DISL,ioos:station:DISL:MHPA:1,2019-09-06T21:00:00Z,30.6671,-87.9365,32.93,11111222 
DISL,ioos:station:DISL:MHPA:1,2019-09-06T22:00:00Z,30.6671,-87.9365,32.78,11111222 
DISL,ioos:station:DISL:MHPA:1,2019-09-06T23:00:00Z,30.6671,-87.9365,32.49,11111222 
DISL,ioos:station:DISL:MHPA:1,2019-09-07T00:00:00Z,30.6671,-87.9365,30.99,11111222 
DISL,ioos:station:DISL:MHPA:1,2019-09-07T01:00:00Z,30.6671,-87.9365,29.15,11111222 
DISL,ioos:station:DISL:MHPA:1,2019-09-07T02:00:00Z,30.6671,-87.9365,28.08,11111222 
DISL,ioos:station:DISL:MHPA:1,2019-09-07T03:00:00Z,30.6671,-87.9365,27.39,11111222 
DISL,ioos:station:DISL:MHPA:1,2019-09-07T04:00:00Z,30.6671,-87.9365,26.64,11111222 
DISL,ioos:station:DISL:MHPA:1,2019-09-07T05:00:00Z,30.6671,-87.9365,26.17,11111222 
DISL,ioos:station:DISL:MHPA:1,2019-09-07T06:00:00Z,30.6671,-87.9365,25.94,11111222 
DISL,ioos:station:DISL:MHPA:1,2019-09-07T07:00:00Z,30.6671,-87.9365,25.36,11111222 
DISL,ioos:station:DISL:MHPA:1,2019-09-07T08:00:00Z,30.6671,-87.9365,25.23,11111222 
DISL,ioos:station:DISL:MHPA:1,2019-09-07T09:00:00Z,30.6671,-87.9365,24.72,11111222 
DISL,ioos:station:DISL:MHPA:1,2019-09-07T10:00:00Z,30.6671,-87.9365,24.42,11111222 
DISL,ioos:station:DISL:MHPA:1,2019-09-07T11:00:00Z,30.6671,-87.9365,24.35,11111222 
DISL,ioos:station:DISL:MHPA:1,2019-09-07T12:00:00Z,30.6671,-87.9365,24.49,11111222 
DISL,ioos:station:DISL:MHPA:1,2019-09-07T13:00:00Z,30.6671,-87.9365,25.53,11111222 
DISL,ioos:station:DISL:MHPA:1,2019-09-07T14:00:00Z,30.6671,-87.9365,27.26,11111222 
DISL,ioos:station:DISL:MHPA:1,2019-09-07T15:00:00Z,30.6671,-87.9365,28.96,11111222 
DISL,ioos:station:DISL:MHPA:1,2019-09-07T16:00:00Z,30.6671,-87.9365,30.72,11111222 
DISL,ioos:station:DISL:MHPA:1,2019-09-07T17:00:00Z,30.6671,-87.9365,31.07,11111222 
DISL,ioos:station:DISL:MHPA:1,2019-09-07T18:00:00Z,30.6671,-87.9365,32.34,11111222 
DISL,ioos:station:DISL:MHPA:1,2019-09-07T19:00:00Z,30.6671,-87.9365,32.92,11111222 
DISL,ioos:station:DISL:MHPA:1,2019-09-07T20:00:00Z,30.6671,-87.9365,33.19,11111222 
DISL,ioos:station:DISL:MHPA:1,2019-09-07T21:00:00Z,30.6671,-87.9365,32.75,11111222 
DISL,ioos:station:DISL:MHPA:1,2019-09-07T22:00:00Z,30.6671,-87.9365,32.85,11111222 
DISL,ioos:station:DISL:MHPA:1,2019-09-07T23:00:00Z,30.6671,-87.9365,31.82,11111222 
DISL,ioos:station:DISL:MHPA:1,2019-09-08T00:00:00Z,30.6671,-87.9365,31.63,11111222 
DISL,ioos:station:DISL:MHPA:1,2019-09-08T01:00:00Z,30.6671,-87.9365,31.16,11111222 
DISL,ioos:station:DISL:MHPA:1,2019-09-08T02:00:00Z,30.6671,-87.9365,30.97,11111222 
DISL,ioos:station:DISL:MHPA:1,2019-09-08T03:00:00Z,30.6671,-87.9365,30.64,11111222 
DISL,ioos:station:DISL:MHPA:1,2019-09-08T04:00:00Z,30.6671,-87.9365,30.27,11111222 
DISL,ioos:station:DISL:MHPA:1,2019-09-08T05:00:00Z,30.6671,-87.9365,30.2,11111222 
DISL,ioos:station:DISL:MHPA:1,2019-09-08T06:00:00Z,30.6671,-87.9365,30.13,11111222 
DISL,ioos:station:DISL:MHPA:1,2019-09-08T07:00:00Z,30.6671,-87.9365,29.9,11111222 
DISL,ioos:station:DISL:MHPA:1,2019-09-08T08:00:00Z,30.6671,-87.9365,29.42,11111222 
DISL,ioos:station:DISL:MHPA:1,2019-09-08T09:00:00Z,30.6671,-87.9365,28.75,11111222 
DISL,ioos:station:DISL:MHPA:1,2019-09-08T10:00:00Z,30.6671,-87.9365,28.15,11111222 
DISL,ioos:station:DISL:MHPA:1,2019-09-08T11:00:00Z,30.6671,-87.9365,27.59,11111222 
DISL,ioos:station:DISL:MHPA:1,2019-09-08T12:00:00Z,30.6671,-87.9365,27.39,11111222 
DISL,ioos:station:DISL:MHPA:1,2019-09-08T13:00:00Z,30.6671,-87.9365,27.94,11111222 
DISL,ioos:station:DISL:MHPA:1,2019-09-08T14:00:00Z,30.6671,-87.9365,28.69,11111222 
DISL,ioos:station:DISL:MHPA:1,2019-09-08T15:00:00Z,30.6671,-87.9365,30.55,11111222 
DISL,ioos:station:DISL:MHPA:1,2019-09-08T16:00:00Z,30.6671,-87.9365,32.01,11111222 
DISL,ioos:station:DISL:MHPA:1,2019-09-08T17:00:00Z,30.6671,-87.9365,32.24,11111222 
DISL,ioos:station:DISL:MHPA:1,2019-09-08T18:00:00Z,30.6671,-87.9365,33.09,11111222 
DISL,ioos:station:DISL:MHPA:1,2019-09-08T18:59:00Z,30.6671,-87.9365,33.39,11111222 
DISL,ioos:station:DISL:MHPA:1,2019-09-08T19:59:00Z,30.6671,-87.9365,33.76,11111222 
DISL,ioos:station:DISL:MHPA:1,2019-09-08T20:59:00Z,30.6671,-87.9365,32.88,11111222 
DISL,ioos:station:DISL:MHPA:1,2019-09-08T21:59:00Z,30.6671,-87.9365,32.14,11111222 
DISL,ioos:station:DISL:MHPA:1,2019-09-08T22:59:00Z,30.6671,-87.9365,31.59,11111222 
DISL,ioos:station:DISL:MHPA:1,2019-09-08T23:59:00Z,30.6671,-87.9365,31.26,11111222 
DISL,ioos:station:DISL:MHPA:1,2019-09-09T00:59:00Z,30.6671,-87.9365,31.1,11111222 
DISL,ioos:station:DISL:MHPA:1,2019-09-09T01:59:00Z,30.6671,-87.9365,31.0,11111222 
DISL,ioos:station:DISL:MHPA:1,2019-09-09T02:59:00Z,30.6671,-87.9365,30.84,11111222 
DISL,ioos:station:DISL:MHPA:1,2019-09-09T03:59:00Z,30.6671,-87.9365,30.87,11111222 
DISL,ioos:station:DISL:MHPA:1,2019-09-09T04:59:00Z,30.6671,-87.9365,30.6,11111222 
DISL,ioos:station:DISL:MHPA:1,2019-09-09T05:59:00Z,30.6671,-87.9365,30.44,11111222 
DISL,ioos:station:DISL:MHPA:1,2019-09-09T06:59:00Z,30.6671,-87.9365,30.3,11111222 
DISL,ioos:station:DISL:MHPA:1,2019-09-09T07:59:00Z,30.6671,-87.9365,29.96,11111222 
DISL,ioos:station:DISL:MHPA:1,2019-09-09T08:59:00Z,30.6671,-87.9365,28.45,11111222 
DISL,ioos:station:DISL:MHPA:1,2019-09-09T09:59:00Z,30.6671,-87.9365,28.65,11111222 
DISL,ioos:station:DISL:MHPA:1,2019-09-09T10:59:00Z,30.6671,-87.9365,29.96,11111222 
DISL,ioos:station:DISL:MHPA:1,2019-09-09T11:59:00Z,30.6671,-87.9365,29.93,11111222 
DISL,ioos:station:DISL:MHPA:1,2019-09-09T12:59:00Z,30.6671,-87.9365,29.99,11111222 
DISL,ioos:station:DISL:MHPA:1,2019-09-09T13:59:00Z,30.6671,-87.9365,30.07,11111222 
DISL,ioos:station:DISL:MHPA:1,2019-09-09T14:59:00Z,30.6671,-87.9365,30.34,11111222 
DISL,ioos:station:DISL:MHPA:1,2019-09-09T15:59:00Z,30.6671,-87.9365,30.51,11111222 
DISL,ioos:station:DISL:MHPA:1,2019-09-09T16:59:00Z,30.6671,-87.9365,30.71,11111222 
DISL,ioos:station:DISL:MHPA:1,2019-09-09T17:59:00Z,30.6671,-87.9365,31.05,11111222 
DISL,ioos:station:DISL:MHPA:1,2019-09-09T18:59:00Z,30.6671,-87.9365,30.95,11111222 
DISL,ioos:station:DISL:MHPA:1,2019-09-09T22:59:00Z,30.6671,-87.9365,30.38,11111222 
DISL,ioos:station:DISL:MHPA:1,2019-09-09T23:59:00Z,30.6671,-87.9365,29.82,11111222 
DISL,ioos:station:DISL:MHPA:1,2019-09-10T00:59:00Z,30.6671,-87.9365,28.95,11111222 
DISL,ioos:station:DISL:MHPA:1,2019-09-10T01:59:00Z,30.6671,-87.9365,28.58,11111222 
DISL,ioos:station:DISL:MHPA:1,2019-09-10T02:59:00Z,30.6671,-87.9365,27.91,11111222 
DISL,ioos:station:DISL:MHPA:1,2019-09-10T03:59:00Z,30.6671,-87.9365,27.11,11111222 
DISL,ioos:station:DISL:MHPA:1,2019-09-10T04:59:00Z,30.6671,-87.9365,26.75,11111222 
DISL,ioos:station:DISL:MHPA:1,2019-09-10T05:59:00Z,30.6671,-87.9365,26.27,11111222 
DISL,ioos:station:DISL:MHPA:1,2019-09-10T06:59:00Z,30.6671,-87.9365,26.0,11111222 
DISL,ioos:station:DISL:MHPA:1,2019-09-10T07:59:00Z,30.6671,-87.9365,25.53,11111222 
DISL,ioos:station:DISL:MHPA:1,2019-09-10T08:59:00Z,30.6671,-87.9365,25.29,11111222 
DISL,ioos:station:DISL:MHPA:1,2019-09-10T09:59:00Z,30.6671,-87.9365,25.02,11111222 
DISL,ioos:station:DISL:MHPA:1,2019-09-10T10:59:00Z,30.6671,-87.9365,24.86,11111222 
DISL,ioos:station:DISL:MHPA:1,2019-09-10T11:59:00Z,30.6671,-87.9365,24.99,11111222 
DISL,ioos:station:DISL:MHPA:1,2019-09-10T12:59:00Z,30.6671,-87.9365,25.87,11111222 
DISL,ioos:station:DISL:MHPA:1,2019-09-10T13:59:00Z,30.6671,-87.9365,28.58,11111222 
DISL,ioos:station:DISL:MHPA:1,2019-09-10T14:59:00Z,30.6671,-87.9365,29.23,11111222 
DISL,ioos:station:DISL:MHPA:1,2019-09-10T15:59:00Z,30.6671,-87.9365,29.84,11111222 
DISL,ioos:station:DISL:MHPA:1,2019-09-10T16:59:00Z,30.6671,-87.9365,28.3,11111222 
DISL,ioos:station:DISL:MHPA:1,2019-09-10T17:59:00Z,30.6671,-87.9365,29.69,11111222 
DISL,ioos:station:DISL:MHPA:1,2019-09-10T18:59:00Z,30.6671,-87.9365,30.11,11111222 
DISL,ioos:station:DISL:MHPA:1,2019-09-10T19:59:00Z,30.6671,-87.9365,30.21,11111222 
DISL,ioos:station:DISL:MHPA:1,2019-09-10T20:59:00Z,30.6671,-87.9365,30.34,11111222 
DISL,ioos:station:DISL:MHPA:1,2019-09-10T21:59:00Z,30.6671,-87.9365,31.46,11111222 
DISL,ioos:station:DISL:MHPA:1,2019-09-10T22:59:00Z,30.6671,-87.9365,31.56,11111222 
DISL,ioos:station:DISL:MHPA:1,2019-09-10T23:59:00Z,30.6671,-87.9365,30.24,11111222 
DISL,ioos:station:DISL:MHPA:1,2019-09-11T00:59:00Z,30.6671,-87.9365,29.83,11111222 
DISL,ioos:station:DISL:MHPA:1,2019-09-11T01:59:00Z,30.6671,-87.9365,28.38,11111222 
DISL,ioos:station:DISL:MHPA:1,2019-09-11T02:59:00Z,30.6671,-87.9365,27.52,11111222 
DISL,ioos:station:DISL:MHPA:1,2019-09-11T03:59:00Z,30.6671,-87.9365,27.32,11111222 
DISL,ioos:station:DISL:MHPA:1,2019-09-11T04:59:00Z,30.6671,-87.9365,26.85,11111222 
DISL,ioos:station:DISL:MHPA:1,2019-09-11T05:59:00Z,30.6671,-87.9365,26.61,11111222 
DISL,ioos:station:DISL:MHPA:1,2019-09-11T06:59:00Z,30.6671,-87.9365,25.67,11111222 
DISL,ioos:station:DISL:MHPA:1,2019-09-11T07:59:00Z,30.6671,-87.9365,25.02,11111222 
DISL,ioos:station:DISL:MHPA:1,2019-09-11T08:59:00Z,30.6671,-87.9365,25.33,11111222 
DISL,ioos:station:DISL:MHPA:1,2019-09-11T09:59:00Z,30.6671,-87.9365,25.16,11111222 
DISL,ioos:station:DISL:MHPA:1,2019-09-11T10:59:00Z,30.6671,-87.9365,24.52,11111222 
DISL,ioos:station:DISL:MHPA:1,2019-09-11T11:59:00Z,30.6671,-87.9365,24.45,11111222 
DISL,ioos:station:DISL:MHPA:1,2019-09-11T12:59:00Z,30.6671,-87.9365,24.58,11111222 
DISL,ioos:station:DISL:MHPA:1,2019-09-11T13:59:00Z,30.6671,-87.9365,27.61,11111222 
DISL,ioos:station:DISL:MHPA:1,2019-09-11T14:59:00Z,30.6671,-87.9365,29.64,11111222 
DISL,ioos:station:DISL:MHPA:1,2019-09-11T15:59:00Z,30.6671,-87.9365,30.45,11111222 
DISL,ioos:station:DISL:MHPA:1,2019-09-11T16:59:00Z,30.6671,-87.9365,31.12,11111222 
DISL,ioos:station:DISL:MHPA:1,2019-09-11T17:59:00Z,30.6671,-87.9365,32.39,11111222 
DISL,ioos:station:DISL:MHPA:1,2019-09-11T18:59:00Z,30.6671,-87.9365,32.59,11111222 
DISL,ioos:station:DISL:MHPA:1,2019-09-11T19:59:00Z,30.6671,-87.9365,33.09,11111222 
DISL,ioos:station:DISL:MHPA:1,2019-09-11T20:59:00Z,30.6671,-87.9365,30.85,11111222 
DISL,ioos:station:DISL:MHPA:1,2019-09-11T21:59:00Z,30.6671,-87.9365,30.48,11111222 
DISL,ioos:station:DISL:MHPA:1,2019-09-11T22:59:00Z,30.6671,-87.9365,30.14,11111222 
DISL,ioos:station:DISL:MHPA:1,2019-09-11T23:59:00Z,30.6671,-87.9365,29.68,11111222 
DISL,ioos:station:DISL:MHPA:1,2019-09-12T00:59:00Z,30.6671,-87.9365,30.06,11111222 
DISL,ioos:station:DISL:MHPA:1,2019-09-12T01:59:00Z,30.6671,-87.9365,28.75,11111222 
DISL,ioos:station:DISL:MHPA:1,2019-09-12T02:59:00Z,30.6671,-87.9365,28.21,11111222 
DISL,ioos:station:DISL:MHPA:1,2019-09-12T03:59:00Z,30.6671,-87.9365,27.39,11111222 
DISL,ioos:station:DISL:MHPA:1,2019-09-12T04:59:00Z,30.6671,-87.9365,26.95,11111222 
DISL,ioos:station:DISL:MHPA:1,2019-09-12T05:59:00Z,30.6671,-87.9365,26.44,11111222 
DISL,ioos:station:DISL:MHPA:1,2019-09-12T06:59:00Z,30.6671,-87.9365,25.67,11111222 
DISL,ioos:station:DISL:MHPA:1,2019-09-12T07:59:00Z,30.6671,-87.9365,25.6,11111222 
DISL,ioos:station:DISL:MHPA:1,2019-09-12T08:59:00Z,30.6671,-87.9365,25.36,11111222 
DISL,ioos:station:DISL:MHPA:1,2019-09-12T09:59:00Z,30.6671,-87.9365,24.96,11111222 
DISL,ioos:station:DISL:MHPA:1,2019-09-12T10:59:00Z,30.6671,-87.9365,24.79,11111222 
DISL,ioos:station:DISL:MHPA:1,2019-09-12T11:59:00Z,30.6671,-87.9365,24.76,11111222 
DISL,ioos:station:DISL:MHPA:1,2019-09-12T12:59:00Z,30.6671,-87.9365,25.5,11111222 
DISL,ioos:station:DISL:MHPA:1,2019-09-12T13:59:00Z,30.6671,-87.9365,27.43,11111222 
DISL,ioos:station:DISL:MHPA:1,2019-09-12T14:59:00Z,30.6671,-87.9365,30.22,11111222 
DISL,ioos:station:DISL:MHPA:1,2019-09-12T15:59:00Z,30.6671,-87.9365,31.46,11111222 
DISL,ioos:station:DISL:MHPA:1,2019-09-13T19:59:00Z,30.6671,-87.9365,33.61,11111222 
DISL,ioos:station:DISL:MHPA:1,2019-09-13T20:59:00Z,30.6671,-87.9365,34.37,11111222 
DISL,ioos:station:DISL:MHPA:1,2019-09-13T21:59:00Z,30.6671,-87.9365,34.23,11111222 
DISL,ioos:station:DISL:MHPA:1,2019-09-13T22:59:00Z,30.6671,-87.9365,30.23,11111222 
DISL,ioos:station:DISL:MHPA:1,2019-09-13T23:59:00Z,30.6671,-87.9365,30.04,11111222 
DISL,ioos:station:DISL:MHPA:1,2019-09-14T00:59:00Z,30.6671,-87.9365,29.96,11111222 
DISL,ioos:station:DISL:MHPA:1,2019-09-14T01:59:00Z,30.6671,-87.9365,28.51,11111222 
DISL,ioos:station:DISL:MHPA:1,2019-09-14T02:59:00Z,30.6671,-87.9365,27.68,11111222 
DISL,ioos:station:DISL:MHPA:1,2019-09-14T03:59:00Z,30.6671,-87.9365,26.78,11111222 
DISL,ioos:station:DISL:MHPA:1,2019-09-14T04:59:00Z,30.6671,-87.9365,25.97,11111222 
DISL,ioos:station:DISL:MHPA:1,2019-09-14T05:59:00Z,30.6671,-87.9365,25.4,11111222 
DISL,ioos:station:DISL:MHPA:1,2019-09-14T06:59:00Z,30.6671,-87.9365,25.13,11111222 